,,Stat6,,Stat2,,Stat8,,Stat9,,Stat10,,Wind1,,Wind1,
time,status,PA1M_AVG,status,PR1M_SUM,status,RH1M_AVG,status,SR1M_AVG,status,TA1M_AVG,status,W1dAve1m,status,W1sAve1m,
2004-02-06, 00:00:00,VALID,920.666,VALID,0,VALID,100,VALID,0,VALID,19.7221,VALID,359,VALID,0.543968,
2004-02-06, 00:01:00,VALID,920.65,VALID,0,VALID,100,VALID,-0.0169808,VALID,19.7415,VALID,359,VALID,0.37064,
2004-02-06, 00:02:00,VALID,920.639,VALID,0,VALID,100,VALID,0,VALID,19.7415,VALID,359,VALID,0.207403,
2004-02-06, 00:03:00,VALID,920.613,VALID,0,VALID,100,VALID,-0.0169808,VALID,19.732,VALID,359,VALID,0.0101744,
2004-02-06, 00:04:00,VALID,920.61,VALID,0,VALID,100,VALID,0,VALID,19.742,VALID,359,VALID,0,
2004-02-06, 00:05:00,VALID,920.603,VALID,0,VALID,100,VALID,-0.0339617,VALID,19.6968,VALID,359,VALID,0,
2004-02-06, 00:06:00,VALID,920.587,VALID,0,VALID,100,VALID,0,VALID,19.6737,VALID,359,VALID,0.0416667,
2004-02-06, 00:07:00,VALID,920.588,VALID,0,VALID,100,VALID,-0.0339617,VALID,19.6575,VALID,359,VALID,0.0416061,
2004-02-06, 00:08:00,VALID,920.582,VALID,0,VALID,100,VALID,-0.0169808,VALID,19.6612,VALID,359,VALID,0.0614099,
2004-02-06, 00:09:00,VALID,920.59,VALID,0,VALID,100,VALID,0,VALID,19.6679,VALID,4,VALID,0.610119,
2004-02-06, 00:10:00,VALID,920.584,VALID,0,VALID,100,VALID,0,VALID,19.6796,VALID,12,VALID,0.320703,
2004-02-06, 00:11:00,VALID,920.572,VALID,0,VALID,100,VALID,0.0169808,VALID,19.6861,VALID,12,VALID,0.341273,
2004-02-06, 00:12:00,VALID,920.572,VALID,0,VALID,100,VALID,0.0169808,VALID,19.6836,VALID,12,VALID,0.372266,
2004-02-06, 00:13:00,VALID,920.568,VALID,0,VALID,100,VALID,-0.0169808,VALID,19.6635,VALID,26,VALID,0.624414,
2004-02-06, 00:14:00,VALID,920.566,VALID,0,VALID,100,VALID,0,VALID,19.6645,VALID,41,VALID,0.710751,
2004-02-06, 00:15:00,VALID,920.582,VALID,0,VALID,100,VALID,0,VALID,19.6476,VALID,41,VALID,0.624814,
2004-02-06, 00:16:00,VALID,920.587,VALID,0,VALID,100,VALID,-0.0169808,VALID,19.6515,VALID,41,VALID,0.508358,
2004-02-06, 00:17:00,VALID,920.592,VALID,0,VALID,100,VALID,0,VALID,19.6421,VALID,41,VALID,0.419876,
2004-02-06, 00:18:00,VALID,920.592,VALID,0,VALID,100,VALID,0.0169808,VALID,19.6185,VALID,41,VALID,0.160342,
2004-02-06, 00:19:00,VALID,920.59,VALID,0,VALID,100,VALID,0,VALID,19.6421,VALID,41,VALID,0.00218023,
2004-02-06, 00:20:00,VALID,920.595,VALID,0,VALID,100,VALID,-0.0169808,VALID,19.6349,VALID,41,VALID,0,
2004-02-06, 00:21:00,VALID,920.596,VALID,0,VALID,100,VALID,0,VALID,19.6352,VALID,41,VALID,0.218378,
2004-02-06, 00:22:00,VALID,920.61,VALID,0,VALID,100,VALID,-0.0169808,VALID,19.6515,VALID,41,VALID,0.140803,
2004-02-06, 00:23:00,VALID,920.617,VALID,0,VALID,100,VALID,-0.0169808,VALID,19.6153,VALID,41,VALID,0.294207,
2004-02-06, 00:24:00,VALID,920.626,VALID,0,VALID,100,VALID,0.0169808,VALID,19.5932,VALID,41,VALID,0.301962,
2004-02-06, 00:25:00,VALID,920.607,VALID,0,VALID,100,VALID,0.0169808,VALID,19.58,VALID,40,VALID,0.385174,
2004-02-06, 00:26:00,VALID,920.609,VALID,0,VALID,100,VALID,0,VALID,19.5666,VALID,39,VALID,0.380766,
2004-02-06, 00:27:00,VALID,920.582,VALID,0,VALID,100,VALID,0,VALID,19.5668,VALID,39,VALID,0.2125,
2004-02-06, 00:28:00,VALID,920.569,VALID,0,VALID,100,VALID,0.0339617,VALID,19.5703,VALID,39,VALID,0.00639205,
2004-02-06, 00:29:00,VALID,920.532,VALID,0,VALID,100,VALID,0.0169808,VALID,19.5765,VALID,39,VALID,0,
2004-02-06, 00:30:00,VALID,920.52,VALID,0,VALID,100,VALID,0,VALID,19.5832,VALID,39,VALID,0,
2004-02-06, 00:31:00,VALID,920.494,VALID,0,VALID,100,VALID,0,VALID,19.5544,VALID,39,VALID,0.224805,
2004-02-06, 00:32:00,VALID,920.472,VALID,0,VALID,100,VALID,0,VALID,19.5254,VALID,68,VALID,0.554688,
2004-02-06, 00:33:00,VALID,920.479,VALID,0,VALID,100,VALID,0,VALID,19.4963,VALID,75,VALID,0.616044,
2004-02-06, 00:34:00,VALID,920.462,VALID,0,VALID,100,VALID,0,VALID,19.4961,VALID,56,VALID,0.790777,
2004-02-06, 00:35:00,VALID,920.474,VALID,0,VALID,100,VALID,0,VALID,19.4901,VALID,35,VALID,1.07493,
2004-02-06, 00:36:00,VALID,920.483,VALID,0,VALID,100,VALID,0.0169808,VALID,19.4571,VALID,35,VALID,1.13038,
2004-02-06, 00:37:00,VALID,920.469,VALID,0,VALID,100,VALID,0,VALID,19.4409,VALID,45,VALID,1.25945,
2004-02-06, 00:38:00,VALID,920.469,VALID,0,VALID,100,VALID,0,VALID,19.4151,VALID,43,VALID,0.949609,
2004-02-06, 00:39:00,VALID,920.47,VALID,0,VALID,100,VALID,0.0339617,VALID,19.422,VALID,56,VALID,1.07977,
2004-02-06, 00:40:00,VALID,920.473,VALID,0,VALID,100,VALID,0.0169808,VALID,19.4056,VALID,70,VALID,0.91695,
2004-02-06, 00:41:00,VALID,920.459,VALID,0,VALID,100,VALID,0,VALID,19.4056,VALID,62,VALID,0.917783,
2004-02-06, 00:42:00,VALID,920.454,VALID,0,VALID,100,VALID,0,VALID,19.386,VALID,53,VALID,0.832281,
2004-02-06, 00:43:00,VALID,920.435,VALID,0,VALID,100,VALID,0,VALID,19.3992,VALID,69,VALID,0.717262,
2004-02-06, 00:44:00,VALID,920.41,VALID,0,VALID,100,VALID,0,VALID,19.393,VALID,61,VALID,0.847396,
2004-02-06, 00:45:00,VALID,920.392,VALID,0,VALID,100,VALID,0,VALID,19.386,VALID,66,VALID,0.814844,
2004-02-06, 00:46:00,VALID,920.361,VALID,0,VALID,100,VALID,0,VALID,19.3801,VALID,80,VALID,0.707031,
2004-02-06, 00:47:00,VALID,920.345,VALID,0,VALID,100,VALID,0,VALID,19.3699,VALID,108,VALID,0.831854,
2004-02-06, 00:48:00,VALID,920.319,VALID,0,VALID,100,VALID,-0.0169808,VALID,19.3701,VALID,119,VALID,0.993608,
2004-02-06, 00:49:00,VALID,920.307,VALID,0,VALID,100,VALID,0.0169808,VALID,19.3669,VALID,127,VALID,1.42678,
2004-02-06, 00:50:00,VALID,920.303,VALID,0,VALID,100,VALID,0.0169808,VALID,19.3607,VALID,125,VALID,1.56481,
2004-02-06, 00:51:00,VALID,920.299,VALID,0,VALID,100,VALID,0.0169808,VALID,19.3741,VALID,129,VALID,1.24764,
2004-02-06, 00:52:00,VALID,920.273,VALID,0,VALID,100,VALID,0,VALID,19.3667,VALID,129,VALID,1.48207,
2004-02-06, 00:53:00,VALID,920.245,VALID,0,VALID,100,VALID,0,VALID,19.3602,VALID,134,VALID,1.47257,
2004-02-06, 00:54:00,VALID,920.22,VALID,0,VALID,100,VALID,0,VALID,19.3738,VALID,133,VALID,1.56357,
2004-02-06, 00:55:00,VALID,920.199,VALID,0,VALID,100,VALID,0,VALID,19.3667,VALID,135,VALID,1.62649,
2004-02-06, 00:56:00,VALID,920.185,VALID,0,VALID,100,VALID,0.0169808,VALID,19.357,VALID,142,VALID,1.53561,
2004-02-06, 00:57:00,VALID,920.178,VALID,0,VALID,100,VALID,0.0169808,VALID,19.3773,VALID,138,VALID,1.36612,
2004-02-06, 00:58:00,VALID,920.195,VALID,0,VALID,100,VALID,-0.0169808,VALID,19.3771,VALID,131,VALID,1.28001,
2004-02-06, 00:59:00,VALID,920.19,VALID,0,VALID,100,VALID,-0.0169808,VALID,19.3766,VALID,131,VALID,1.21133,
2004-02-06, 01:00:00,VALID,920.188,VALID,0,VALID,100,VALID,0,VALID,19.3796,VALID,125,VALID,1.15304,
2004-02-06, 01:01:00,VALID,920.166,VALID,0,VALID,100,VALID,0.0339617,VALID,19.3759,VALID,116,VALID,1.27381,
2004-02-06, 01:02:00,VALID,920.133,VALID,0,VALID,100,VALID,0.0679233,VALID,19.389,VALID,114,VALID,1.25509,
2004-02-06, 01:03:00,VALID,920.071,VALID,0,VALID,100,VALID,0.0339617,VALID,19.3788,VALID,121,VALID,1.70585,
2004-02-06, 01:04:00,VALID,920.035,VALID,0,VALID,100,VALID,0,VALID,19.4052,VALID,115,VALID,1.59012,
2004-02-06, 01:05:00,VALID,920.004,VALID,0,VALID,100,VALID,0.0339617,VALID,19.3989,VALID,112,VALID,1.57599,
2004-02-06, 01:06:00,VALID,919.988,VALID,0,VALID,100,VALID,0.0679233,VALID,19.4148,VALID,115,VALID,1.46911,
2004-02-06, 01:07:00,VALID,919.975,VALID,0,VALID,100,VALID,0.0169808,VALID,19.4275,VALID,111,VALID,1.05859,
2004-02-06, 01:08:00,VALID,919.975,VALID,0,VALID,100,VALID,0.101885,VALID,19.4208,VALID,114,VALID,0.945313,
2004-02-06, 01:09:00,VALID,919.982,VALID,0,VALID,100,VALID,0.0509425,VALID,19.4374,VALID,116,VALID,1.12324,
2004-02-06, 01:10:00,VALID,919.971,VALID,0,VALID,100,VALID,0.0849042,VALID,19.4372,VALID,127,VALID,1.2138,
2004-02-06, 01:11:00,VALID,919.967,VALID,0,VALID,100,VALID,0.0509425,VALID,19.4404,VALID,124,VALID,0.937309,
2004-02-06, 01:12:00,VALID,919.967,VALID,0,VALID,100,VALID,0.0339617,VALID,19.4379,VALID,130,VALID,1.00651,
2004-02-06, 01:13:00,VALID,919.951,VALID,0,VALID,100,VALID,0,VALID,19.4278,VALID,131,VALID,1.11328,
2004-02-06, 01:14:00,VALID,919.936,VALID,0,VALID,100,VALID,-0.0679233,VALID,19.4392,VALID,134,VALID,1.09508,
2004-02-06, 01:15:00,VALID,919.919,VALID,0,VALID,100,VALID,-0.101885,VALID,19.4327,VALID,128,VALID,1.37872,
2004-02-06, 01:16:00,VALID,919.898,VALID,0,VALID,100,VALID,-0.0849042,VALID,19.4195,VALID,128,VALID,1.31771,
2004-02-06, 01:17:00,VALID,919.888,VALID,0,VALID,100,VALID,-0.101885,VALID,19.4265,VALID,132,VALID,1.24822,
2004-02-06, 01:18:00,VALID,919.865,VALID,0,VALID,100,VALID,-0.0509425,VALID,19.4265,VALID,134,VALID,1.32698,
2004-02-06, 01:19:00,VALID,919.862,VALID,0,VALID,100,VALID,-0.0849042,VALID,19.4101,VALID,136,VALID,1.59211,
2004-02-06, 01:20:00,VALID,919.821,VALID,0,VALID,100,VALID,-0.0509425,VALID,19.4034,VALID,135,VALID,1.09824,
2004-02-06, 01:21:00,VALID,919.806,VALID,0,VALID,100,VALID,-0.0849042,VALID,19.4039,VALID,143,VALID,1.15605,
2004-02-06, 01:22:00,VALID,919.791,VALID,0,VALID,100,VALID,-0.0849042,VALID,19.3843,VALID,149,VALID,1.07068,
2004-02-06, 01:23:00,VALID,919.795,VALID,0,VALID,100,VALID,-0.0679233,VALID,19.3741,VALID,132,VALID,0.69077,
2004-02-06, 01:24:00,VALID,919.788,VALID,0,VALID,100,VALID,-0.0849042,VALID,19.3843,VALID,151,VALID,0.681504,
2004-02-06, 01:25:00,VALID,919.766,VALID,0,VALID,100,VALID,-0.0849042,VALID,19.3713,VALID,144,VALID,1.02474,
2004-02-06, 01:26:00,VALID,919.75,VALID,0,VALID,100,VALID,-0.0679233,VALID,19.3649,VALID,143,VALID,1.21534,
2004-02-06, 01:27:00,VALID,919.737,VALID,0,VALID,100,VALID,-0.0339617,VALID,19.3679,VALID,143,VALID,1.11071,
2004-02-06, 01:28:00,VALID,919.709,VALID,0,VALID,100,VALID,-0.0339617,VALID,19.3679,VALID,141,VALID,1.18444,
2004-02-06, 01:29:00,VALID,919.694,VALID,0,VALID,100,VALID,0.0339617,VALID,19.3597,VALID,138,VALID,1.49019,
2004-02-06, 01:30:00,VALID,919.671,VALID,0,VALID,100,VALID,0.0849042,VALID,19.3567,VALID,130,VALID,1.47894,
2004-02-06, 01:31:00,VALID,919.662,VALID,0,VALID,100,VALID,0,VALID,19.357,VALID,140,VALID,1.77823,
2004-02-06, 01:32:00,VALID,919.619,VALID,0,VALID,100,VALID,0.0339617,VALID,19.347,VALID,140,VALID,1.66536,
2004-02-06, 01:33:00,VALID,919.602,VALID,0,VALID,100,VALID,0.0169808,VALID,19.3639,VALID,138,VALID,1.38986,
2004-02-06, 01:34:00,VALID,919.582,VALID,0,VALID,100,VALID,0.0509425,VALID,19.3503,VALID,139,VALID,1.77474,
2004-02-06, 01:35:00,VALID,919.569,VALID,0,VALID,100,VALID,0.0509425,VALID,19.3376,VALID,150,VALID,1.54941,
2004-02-06, 01:36:00,VALID,919.55,VALID,0,VALID,100,VALID,0.0169808,VALID,19.3281,VALID,143,VALID,1.25816,
2004-02-06, 01:37:00,VALID,919.528,VALID,0,VALID,100,VALID,0,VALID,19.3147,VALID,124,VALID,1.49524,
2004-02-06, 01:38:00,VALID,919.507,VALID,0,VALID,100,VALID,0.0679233,VALID,19.2921,VALID,138,VALID,1.81155,
2004-02-06, 01:39:00,VALID,919.491,VALID,0,VALID,100,VALID,-0.0169808,VALID,19.2601,VALID,127,VALID,1.84914,
2004-02-06, 01:40:00,VALID,919.482,VALID,0,VALID,100,VALID,0.0169808,VALID,19.2437,VALID,133,VALID,1.71205,
2004-02-06, 01:41:00,VALID,919.467,VALID,0,VALID,100,VALID,0,VALID,19.2477,VALID,126,VALID,1.83761,
2004-02-06, 01:42:00,VALID,919.45,VALID,0,VALID,100,VALID,0,VALID,19.2377,VALID,143,VALID,1.97511,
2004-02-06, 01:43:00,VALID,919.424,VALID,0,VALID,100,VALID,0,VALID,19.2348,VALID,133,VALID,1.67969,
2004-02-06, 01:44:00,VALID,919.393,VALID,0,VALID,100,VALID,0.0169808,VALID,19.2313,VALID,131,VALID,2.11222,
2004-02-06, 01:45:00,VALID,919.394,VALID,0,VALID,100,VALID,0,VALID,19.2313,VALID,130,VALID,2.0186,
2004-02-06, 01:46:00,VALID,919.37,VALID,0,VALID,100,VALID,0.0339617,VALID,19.231,VALID,140,VALID,2.11115,
2004-02-06, 01:47:00,VALID,919.355,VALID,0,VALID,100,VALID,0.0169808,VALID,19.2415,VALID,133,VALID,1.81445,
2004-02-06, 01:48:00,VALID,919.34,VALID,0,VALID,100,VALID,0.0169808,VALID,19.2382,VALID,129,VALID,2.15216,
2004-02-06, 01:49:00,VALID,919.33,VALID,0,VALID,100,VALID,0,VALID,19.238,VALID,131,VALID,2.05339,
2004-02-06, 01:50:00,VALID,919.308,VALID,0,VALID,100,VALID,0,VALID,19.2315,VALID,132,VALID,1.9068,
2004-02-06, 01:51:00,VALID,919.278,VALID,0,VALID,100,VALID,0,VALID,19.2246,VALID,132,VALID,2.19358,
2004-02-06, 01:52:00,VALID,919.252,VALID,0,VALID,100,VALID,0.0169808,VALID,19.2343,VALID,135,VALID,2.47781,
2004-02-06, 01:53:00,VALID,919.22,VALID,0,VALID,100,VALID,0,VALID,19.241,VALID,131,VALID,2.36275,
2004-02-06, 01:54:00,VALID,919.202,VALID,0,VALID,100,VALID,0,VALID,19.2415,VALID,122,VALID,2.32993,
2004-02-06, 01:55:00,VALID,919.184,VALID,0,VALID,100,VALID,0.0169808,VALID,19.244,VALID,150,VALID,1.43359,
2004-02-06, 01:56:00,VALID,919.177,VALID,0,VALID,100,VALID,0.0169808,VALID,19.2536,VALID,135,VALID,1.92548,
2004-02-06, 01:57:00,VALID,919.159,VALID,0,VALID,100,VALID,0.0509425,VALID,19.2599,VALID,135,VALID,1.80178,
2004-02-06, 01:58:00,VALID,919.147,VALID,0,VALID,100,VALID,0.0169808,VALID,19.2507,VALID,140,VALID,2.30923,
2004-02-06, 01:59:00,VALID,919.12,VALID,0,VALID,100,VALID,-0.0339617,VALID,19.2325,VALID,142,VALID,2.39293,
2004-02-06, 02:00:00,VALID,919.112,VALID,0,VALID,100,VALID,-0.101885,VALID,19.2293,VALID,118,VALID,1.72363,
2004-02-06, 02:01:00,VALID,919.1,VALID,0,VALID,100,VALID,-0.0849042,VALID,19.2429,VALID,120,VALID,1.58555,
2004-02-06, 02:02:00,VALID,919.081,VALID,0,VALID,100,VALID,-0.101885,VALID,19.2265,VALID,125,VALID,1.98207,
2004-02-06, 02:03:00,VALID,919.077,VALID,0,VALID,100,VALID,-0.0849042,VALID,19.2293,VALID,131,VALID,1.08557,
2004-02-06, 02:04:00,VALID,919.052,VALID,0,VALID,100,VALID,-0.0849042,VALID,19.2489,VALID,142,VALID,1.33445,
2004-02-06, 02:05:00,VALID,919.034,VALID,0,VALID,100,VALID,-0.0849042,VALID,19.2531,VALID,144,VALID,1.94931,
2004-02-06, 02:06:00,VALID,919.029,VALID,0,VALID,100,VALID,-0.101885,VALID,19.2402,VALID,142,VALID,1.67852,
2004-02-06, 02:07:00,VALID,919.015,VALID,0,VALID,99.9954,VALID,-0.0849042,VALID,19.223,VALID,128,VALID,1.53702,
2004-02-06, 02:08:00,VALID,918.999,VALID,0,VALID,99.9799,VALID,-0.0849042,VALID,19.2272,VALID,139,VALID,1.05011,
2004-02-06, 02:09:00,VALID,919.003,VALID,0,VALID,99.8171,VALID,-0.118866,VALID,19.1875,VALID,130,VALID,1.80522,
2004-02-06, 02:10:00,VALID,918.998,VALID,0,VALID,99.7739,VALID,-0.0849042,VALID,19.2007,VALID,147,VALID,1.20179,
2004-02-06, 02:11:00,VALID,918.995,VALID,0,VALID,99.765,VALID,-0.101885,VALID,19.2069,VALID,137,VALID,1.27504,
2004-02-06, 02:12:00,VALID,918.98,VALID,0,VALID,99.6213,VALID,-0.101885,VALID,19.1908,VALID,126,VALID,1.61403,
2004-02-06, 02:13:00,VALID,918.975,VALID,0,VALID,99.5132,VALID,-0.0849042,VALID,19.1883,VALID,122,VALID,1.67539,
2004-02-06, 02:14:00,VALID,918.969,VALID,0,VALID,99.3441,VALID,-0.0169808,VALID,19.1642,VALID,109,VALID,1.47173,
2004-02-06, 02:15:00,VALID,918.935,VALID,0,VALID,99.3174,VALID,0,VALID,19.1612,VALID,113,VALID,1.21804,
2004-02-06, 02:16:00,VALID,918.905,VALID,0,VALID,99.1979,VALID,0,VALID,19.1548,VALID,127,VALID,1.81194,
2004-02-06, 02:17:00,VALID,918.886,VALID,0,VALID,99.1712,VALID,-0.0169808,VALID,19.1513,VALID,141,VALID,1.60398,
2004-02-06, 02:18:00,VALID,918.852,VALID,0,VALID,99.0974,VALID,0.0169808,VALID,19.1476,VALID,142,VALID,2.07254,
2004-02-06, 02:19:00,VALID,918.83,VALID,0,VALID,98.9868,VALID,0,VALID,19.1473,VALID,112,VALID,1.21748,
2004-02-06, 02:20:00,VALID,918.81,VALID,0,VALID,98.894,VALID,0.0339617,VALID,19.1441,VALID,123,VALID,1.53571,
2004-02-06, 02:21:00,VALID,918.784,VALID,0,VALID,98.8787,VALID,0.0169808,VALID,19.1409,VALID,126,VALID,1.21391,
2004-02-06, 02:22:00,VALID,918.761,VALID,0,VALID,98.8647,VALID,0.0339617,VALID,19.1416,VALID,124,VALID,1.93235,
2004-02-06, 02:23:00,VALID,918.733,VALID,0,VALID,98.8062,VALID,0,VALID,19.1282,VALID,127,VALID,1.34542,
2004-02-06, 02:24:00,VALID,918.714,VALID,0,VALID,98.7541,VALID,0,VALID,19.1347,VALID,120,VALID,1.55357,
2004-02-06, 02:25:00,VALID,918.697,VALID,0,VALID,98.6142,VALID,0,VALID,19.1384,VALID,124,VALID,2.27925,
2004-02-06, 02:26:00,VALID,918.691,VALID,0,VALID,98.5405,VALID,0,VALID,19.128,VALID,124,VALID,1.6862,
2004-02-06, 02:27:00,VALID,918.689,VALID,0,VALID,98.4909,VALID,0.0169808,VALID,19.1548,VALID,119,VALID,1.53664,
2004-02-06, 02:28:00,VALID,918.674,VALID,0,VALID,98.5939,VALID,0,VALID,19.1409,VALID,125,VALID,1.55469,
2004-02-06, 02:29:00,VALID,918.685,VALID,0,VALID,98.6422,VALID,0,VALID,19.1577,VALID,126,VALID,1.71413,
2004-02-06, 02:30:00,VALID,918.689,VALID,0,VALID,98.6028,VALID,0,VALID,19.1548,VALID,108,VALID,1.18769,
2004-02-06, 02:31:00,VALID,918.691,VALID,0,VALID,98.6676,VALID,0,VALID,19.1319,VALID,98,VALID,1.075,
2004-02-06, 02:32:00,VALID,918.692,VALID,0,VALID,98.5799,VALID,0.0169808,VALID,19.1319,VALID,115,VALID,1.6008,
2004-02-06, 02:33:00,VALID,918.709,VALID,0,VALID,98.5214,VALID,0.0169808,VALID,19.1158,VALID,118,VALID,1.34426,
2004-02-06, 02:34:00,VALID,918.698,VALID,0,VALID,98.5023,VALID,0.0169808,VALID,19.1257,VALID,138,VALID,1.13009,
2004-02-06, 02:35:00,VALID,918.694,VALID,0,VALID,98.6117,VALID,0,VALID,19.1354,VALID,161,VALID,1.14698,
2004-02-06, 02:36:00,VALID,918.682,VALID,0,VALID,98.6524,VALID,0.0169808,VALID,19.1376,VALID,152,VALID,1.7649,
2004-02-06, 02:37:00,VALID,918.675,VALID,0,VALID,98.7083,VALID,0,VALID,19.1478,VALID,136,VALID,1.7561,
2004-02-06, 02:38:00,VALID,918.666,VALID,0,VALID,98.6625,VALID,0,VALID,19.1448,VALID,144,VALID,1.68448,
2004-02-06, 02:39:00,VALID,918.67,VALID,0,VALID,98.6396,VALID,0,VALID,19.1317,VALID,138,VALID,1.18121,
2004-02-06, 02:40:00,VALID,918.666,VALID,0,VALID,98.5583,VALID,0,VALID,19.1257,VALID,129,VALID,1.19673,
2004-02-06, 02:41:00,VALID,918.638,VALID,0,VALID,98.4667,VALID,-0.0169808,VALID,19.1026,VALID,136,VALID,1.9957,
2004-02-06, 02:42:00,VALID,918.639,VALID,0,VALID,98.4629,VALID,0.0169808,VALID,19.1063,VALID,143,VALID,1.46243,
2004-02-06, 02:43:00,VALID,918.622,VALID,0,VALID,98.3866,VALID,0,VALID,19.0999,VALID,144,VALID,1.60778,
2004-02-06, 02:44:00,VALID,918.612,VALID,0,VALID,98.3853,VALID,0.0169808,VALID,19.1128,VALID,118,VALID,1.22565,
2004-02-06, 02:45:00,VALID,918.596,VALID,0,VALID,98.3726,VALID,0.0169808,VALID,19.0994,VALID,126,VALID,1.43248,
2004-02-06, 02:46:00,VALID,918.574,VALID,0,VALID,98.1933,VALID,0,VALID,19.0895,VALID,138,VALID,2.22752,
2004-02-06, 02:47:00,VALID,918.569,VALID,0,VALID,98.1513,VALID,0,VALID,19.1188,VALID,138,VALID,1.98562,
2004-02-06, 02:48:00,VALID,918.532,VALID,0,VALID,98.0038,VALID,0,VALID,19.1284,VALID,122,VALID,2.27992,
2004-02-06, 02:49:00,VALID,918.524,VALID,0,VALID,97.9072,VALID,0.0339617,VALID,19.1344,VALID,132,VALID,1.84248,
2004-02-06, 02:50:00,VALID,918.512,VALID,0,VALID,97.8195,VALID,0,VALID,19.1478,VALID,131,VALID,1.97111,
2004-02-06, 02:51:00,VALID,918.506,VALID,0,VALID,97.7521,VALID,0.0169808,VALID,19.1439,VALID,132,VALID,2.08931,
2004-02-06, 02:52:00,VALID,918.498,VALID,0,VALID,97.6567,VALID,0,VALID,19.161,VALID,123,VALID,1.77188,
2004-02-06, 02:53:00,VALID,918.479,VALID,0,VALID,97.5435,VALID,0.0169808,VALID,19.1607,VALID,135,VALID,2.38783,
2004-02-06, 02:54:00,VALID,918.448,VALID,0,VALID,97.3134,VALID,0,VALID,19.1637,VALID,132,VALID,3.44727,
2004-02-06, 02:55:00,VALID,918.448,VALID,0,VALID,97.0603,VALID,0.0169808,VALID,19.1829,VALID,128,VALID,2.70647,
2004-02-06, 02:56:00,VALID,918.437,VALID,0,VALID,96.7195,VALID,0,VALID,19.2027,VALID,115,VALID,2.81307,
2004-02-06, 02:57:00,VALID,918.443,VALID,0,VALID,96.4677,VALID,0,VALID,19.2256,VALID,118,VALID,2.41964,
2004-02-06, 02:58:00,VALID,918.442,VALID,0,VALID,96.2821,VALID,0,VALID,19.2253,VALID,127,VALID,1.93397,
2004-02-06, 02:59:00,VALID,918.415,VALID,0,VALID,95.9044,VALID,0.0169808,VALID,19.2315,VALID,127,VALID,2.9801,
2004-02-06, 03:00:00,VALID,918.418,VALID,0,VALID,95.6425,VALID,0.0339617,VALID,19.2737,VALID,138,VALID,2.4592,
2004-02-06, 03:01:00,VALID,918.399,VALID,0,VALID,95.3017,VALID,0.0339617,VALID,19.2867,VALID,130,VALID,2.94874,
2004-02-06, 03:02:00,VALID,918.4,VALID,0,VALID,95.2712,VALID,0,VALID,19.3058,VALID,126,VALID,2.01525,
2004-02-06, 03:03:00,VALID,918.408,VALID,0,VALID,95.4924,VALID,0.0169808,VALID,19.306,VALID,126,VALID,1.46802,
2004-02-06, 03:04:00,VALID,918.404,VALID,0,VALID,95.7531,VALID,0,VALID,19.2936,VALID,136,VALID,2.00521,
2004-02-06, 03:05:00,VALID,918.411,VALID,0,VALID,95.9667,VALID,0.0169808,VALID,19.2638,VALID,129,VALID,1.61947,
2004-02-06, 03:06:00,VALID,918.408,VALID,0,VALID,96.015,VALID,0.0169808,VALID,19.2482,VALID,131,VALID,2.21973,
2004-02-06, 03:07:00,VALID,918.402,VALID,0,VALID,96.0964,VALID,0.0509425,VALID,19.2417,VALID,135,VALID,1.50491,
2004-02-06, 03:08:00,VALID,918.401,VALID,0,VALID,96.1626,VALID,0.0509425,VALID,19.2318,VALID,139,VALID,2.24183,
2004-02-06, 03:09:00,VALID,918.392,VALID,0,VALID,96.3914,VALID,0.0169808,VALID,19.239,VALID,141,VALID,1.94736,
2004-02-06, 03:10:00,VALID,918.365,VALID,0,VALID,96.6941,VALID,0.0169808,VALID,19.2189,VALID,154,VALID,1.72917,
2004-02-06, 03:11:00,VALID,918.361,VALID,0,VALID,96.9726,VALID,0,VALID,19.1796,VALID,143,VALID,1.4029,
2004-02-06, 03:12:00,VALID,918.335,VALID,0,VALID,96.8429,VALID,0,VALID,19.164,VALID,142,VALID,2.14807,
2004-02-06, 03:13:00,VALID,918.333,VALID,0,VALID,96.8123,VALID,0,VALID,19.1508,VALID,142,VALID,2.60229,
2004-02-06, 03:14:00,VALID,918.333,VALID,0,VALID,96.8988,VALID,0,VALID,19.1612,VALID,144,VALID,2.0886,
2004-02-06, 03:15:00,VALID,918.31,VALID,0,VALID,97.0921,VALID,0.0169808,VALID,19.1741,VALID,154,VALID,1.88783,
2004-02-06, 03:16:00,VALID,918.292,VALID,0,VALID,97.3083,VALID,0,VALID,19.1548,VALID,160,VALID,1.99104,
2004-02-06, 03:17:00,VALID,918.28,VALID,0,VALID,97.5105,VALID,0.0679233,VALID,19.1284,VALID,147,VALID,1.59837,
2004-02-06, 03:18:00,VALID,918.261,VALID,0,VALID,97.6707,VALID,0.0169808,VALID,19.0927,VALID,140,VALID,1.74014,
2004-02-06, 03:19:00,VALID,918.253,VALID,0,VALID,97.8207,VALID,0,VALID,19.0535,VALID,149,VALID,1.58194,
2004-02-06, 03:20:00,VALID,918.23,VALID,0,VALID,97.7978,VALID,0,VALID,19.0413,VALID,147,VALID,2.21999,
2004-02-06, 03:21:00,VALID,918.224,VALID,0,VALID,97.4965,VALID,0,VALID,19.0249,VALID,147,VALID,2.46254,
2004-02-06, 03:22:00,VALID,918.203,VALID,0,VALID,97.2434,VALID,0.0169808,VALID,19.0413,VALID,147,VALID,2.09884,
2004-02-06, 03:23:00,VALID,918.19,VALID,0,VALID,97.0692,VALID,0.0169808,VALID,19.0798,VALID,141,VALID,2.47947,
2004-02-06, 03:24:00,VALID,918.186,VALID,0,VALID,96.9026,VALID,0,VALID,19.1061,VALID,135,VALID,1.9702,
2004-02-06, 03:25:00,VALID,918.179,VALID,0,VALID,96.6102,VALID,0.0169808,VALID,19.1188,VALID,127,VALID,1.79161,
2004-02-06, 03:26:00,VALID,918.171,VALID,0,VALID,96.3177,VALID,0.0169808,VALID,19.1217,VALID,121,VALID,2.163,
2004-02-06, 03:27:00,VALID,918.181,VALID,0,VALID,96.235,VALID,0,VALID,19.1612,VALID,139,VALID,1.9858,
2004-02-06, 03:28:00,VALID,918.169,VALID,0,VALID,96.1562,VALID,0.0339617,VALID,19.157,VALID,138,VALID,2.10465,
2004-02-06, 03:29:00,VALID,918.163,VALID,0,VALID,95.8637,VALID,0.0169808,VALID,19.1637,VALID,138,VALID,2.13081,
2004-02-06, 03:30:00,VALID,918.171,VALID,0,VALID,95.5306,VALID,0,VALID,19.1896,VALID,122,VALID,2.16229,
2004-02-06, 03:31:00,VALID,918.182,VALID,0,VALID,95.3424,VALID,0,VALID,19.2318,VALID,132,VALID,2.23038,
2004-02-06, 03:32:00,VALID,918.199,VALID,0,VALID,95.3207,VALID,0.0339617,VALID,19.2482,VALID,123,VALID,1.72088,
2004-02-06, 03:33:00,VALID,918.22,VALID,0,VALID,95.3564,VALID,0.0169808,VALID,19.2382,VALID,131,VALID,1.70443,
2004-02-06, 03:34:00,VALID,918.23,VALID,0,VALID,95.3564,VALID,0,VALID,19.2387,VALID,117,VALID,1.51817,
2004-02-06, 03:35:00,VALID,918.225,VALID,0,VALID,95.2839,VALID,0.0679233,VALID,19.2191,VALID,88,VALID,1.55041,
2004-02-06, 03:36:00,VALID,918.215,VALID,0,VALID,95.1936,VALID,0.0169808,VALID,19.2159,VALID,116,VALID,1.95258,
2004-02-06, 03:37:00,VALID,918.199,VALID,0,VALID,95.0855,VALID,0.0339617,VALID,19.2221,VALID,119,VALID,1.51848,
2004-02-06, 03:38:00,VALID,918.2,VALID,0,VALID,95.0588,VALID,0,VALID,19.2318,VALID,114,VALID,1.51563,
2004-02-06, 03:39:00,VALID,918.188,VALID,0,VALID,95.0385,VALID,0,VALID,19.2352,VALID,126,VALID,1.56468,
2004-02-06, 03:40:00,VALID,918.197,VALID,0,VALID,95.1771,VALID,0,VALID,19.2253,VALID,124,VALID,1.08819,
2004-02-06, 03:41:00,VALID,918.199,VALID,0,VALID,95.1936,VALID,0,VALID,19.2064,VALID,121,VALID,1.51979,
2004-02-06, 03:42:00,VALID,918.207,VALID,0,VALID,95.2292,VALID,0,VALID,19.1935,VALID,99,VALID,1.56534,
2004-02-06, 03:43:00,VALID,918.221,VALID,0,VALID,95.2775,VALID,0.0339617,VALID,19.1898,VALID,129,VALID,1.04371,